www.pogodaiklimat.ru

Погода и климат >> Архив погоды >> Мали >> Йелимане


ПОГОДА в Йелимане

  • Прогноз погоды в Йелимане
  • Монитор погоды в Йелимане

АРХИВ ПОГОДЫ в Йелимане

Время (UTC), дата Ветер
(напр.,м/с)
 
Видим.   Явления Облачность Т
(С)
Тd
(С)
f
(%)
Тe
(С)
Тes
(С)
Комфортность P
(гПа)
Po
(гПа)
Тmin
(С)
Tmax
(С)
R
(мм)
R24
(мм)
S
(см)
03 15.08 ЮЗ 2 10 км 4/0
[Ci sp]
+31.1 +23.6 64 +42 +42 опасность
перегрева
1009.3 998.0
06 15.08 ЮЗ 2 10 км 10/0
[Ac As]
+30.3 +23.6 67 +41 +41 опасность
перегрева
1010.9 999.6 +30.3
09 15.08 ЮЗ 4 10 км 8/3 900 м
[Cu med, cong Ac lent Ci sp]
+31.6 +23.6 63 +43 +45 опасность
перегрева
1012.4 1001.0
12 15.08 ЮЗ 3 10 км 9/1 900 м
[Sc Ac As]
+33.2 +21.6 51 +41 +47 опасность
перегрева
1012.5 1001.1
15 15.08 ЮЗ 3 10 км туман 8/0
[Ci sp]
+34.0 +21.7 49 +42 +53 опасность
перегрева
1009.9 998.6
18 15.08 В 2 10 км 4/1 1200 м
[Cu med, cong Ci sp]
+36.0 +21.6 43 +44 +45 опасность
перегрева
1009.3 998.0 +36.8
21 15.08 ЮЗ 3 10 км 4/0
[Ac lent Ci sp]
+33.6 +21.4 49 +41 +41 опасность
перегрева
1011.0 999.6
00 16.08 ЮЗ 3 10 км 4/0
[Ci sp]
+31.2 +23.3 63 +42 +42 опасность
перегрева
1011.7 1000.3
03 16.08 штиль 0 10 км 4/0
[Ci sp]
+29.6 +23.8 71 +41 +41 опасность
перегрева
1011.7 1000.3
06 16.08 ЮЗ 2 10 км 6/0
[Ac lent Ci sp]
+28.5 +25.0 81 +41 +41 опасность
перегрева
1011.2 999.8 +28.4
09 16.08 Ю 3 10 км 9/0
[Ci sp]
+30.9 +23.2 64 +41 +47 опасность
перегрева
1012.0 1000.6
12 16.08 Ю 4 10 км 9/1 900 м
[Cu Sc Ci sp]
+34.3 +24.5 57 +47 +58 опасность
перегрева
1012.1 1000.7
15 16.08 С 6 10 км в посл. час дождь 10/3 900 м
[Cu Sc Ac As]
+29.2 +22.5 67 +38 +39 очень
душно
1011.1 999.6
18 16.08 штиль 0 10 км {дождь} 10/0
[Ac As Ci sp]
+31.0 +20.6 54 +38 +39 очень
душно
1009.0 996.2 +36.3 0.6
21 16.08 З 2 10 км 6/0
[Ac lent Ci sp]
+29.9 +21.0 59 +37 +37 очень
душно
1010.1 998.7
00 17.08 штиль 0 10 км 5/0
[Ac lent Ci sp]
+29.0 +24.0 74 +40 +40 очень
душно
1011.5 1000.1
03 17.08 З 2 10 км 4/0
[Ci sp]
+27.7 +24.6 83 +39 +39 очень
душно
1010.9 999.4
06 17.08 З 2 10 км 4/3 900 м
[Sc Ac lent]
+27.0 +23.5 81 +37 +37 очень
душно
1011.1 999.6 +27.0 0.6
09 17.08 ЮЗ 3 10 км 9/3 900 м
[Sc Ac As]
+29.0 +23.7 73 +40 +42 очень
душно
1012.6 1001.1
12 17.08 ЮЗ 3 10 км 9/4 900 м
[Cu med, cong Ac As]
+30.0 +23.9 70 +41 +46 опасность
перегрева
1012.9 1001.4
15 17.08 ЮЗ 3 10 км 8/5 1200 м
[Cu med, cong Ac lent]
+35.0 +23.1 50 +45 +48 опасность
перегрева
1009.8 998.4
18 17.08 ЮЗ 3 10 км 6/4 1200 м
[Cu med, cong Ac lent]
+35.7 +22.6 47 +45 +45 опасность
перегрева
1008.2 996.8 +36.2
21 17.08 ЮЗ 3 10 км 4/0
[Ac lent Ci sp]
+33.2 +22.9 55 +43 +43 опасность
перегрева
1009.5 998.1
00 18.08 ЮЗ 3 10 км 4/0
[Ci sp]
+31.2 +23.8 65 +43 +43 опасность
перегрева
1011.2 999.8
03 18.08 ЮЗ 4 10 км 9/1 900 м
[Sc Ac As]
+28.5 +23.8 76 +39 +39 очень
душно
1010.4 999.0
06 18.08 ЮЗ 3 10 км 8/1 900 м
[Sc Ac lent Ci sp]
+26.6 +23.4 83 +36 +36 очень
душно
1010.9 999.5 +26.4
09 18.08 ЮЗ 4 10 км 10/4 900 м
[Sc Ac As]
+28.5 +23.5 74 +39 +40 очень
душно
1011.8 1000.4
12 18.08 ЮЗ 5 10 км 10/4 900 м
[Sc Ac As]
+28.7 +22.6 70 +38 +40 очень
душно
1012.7 1001.2
15 18.08 ЮЗ 3 10 км гроза, ливневой дождь 10/5 900 м
[Cb cap Ac As]
+28.0 +24.2 80 +39 +41 очень
душно
1010.3 999.8
18 18.08 Ю 3 10 км в посл. час дождь {гроза} 10/5 900 м
[Cu Sc Ac As]
+24.4 +23.2 93 +33 +33 очень
душно
1010.3 998.7 +30.7 8
21 18.08 ЮЗ 2 10 км 10/0
[Ac As]
+24.5 +23.5 94 +33 +33 очень
душно
1011.5 999.9
00 19.08 ЮЗ 2 10 км 9/0
[Ac As Ci sp]
+24.6 +23.4 93 +33 +33 очень
душно
1011.8 1000.2
03 19.08 ЮЗ 2 10 км 8/0
[Ac lent Ci sp]
+24.3 +23.9 98 +33 +33 очень
душно
1010.9 999.3
06 19.08 Ю 2 10 км 10/0
[Ac As]
+24.4 +23.8 96 +33 +33 очень
душно
1011.5 999.8 +24.0 8
09 19.08 ЮЗ 3 10 км 10/1 900 м
[Sc Ac As]
+25.8 +24.4 92 +36 +38 очень
душно
1013.0 1001.3
12 19.08 Ю 2 8000 м слаб. дождь 10/0
[Ac As]
+26.7 +25.0 90 +38 +45 очень
душно
1014.9 1003.2 3
15 19.08 З 3 10 км {дождь} 8/1 900 м
[Sc Ac lent Ci sp]
+28.5 +25.0 81 +41 +48 опасность
перегрева
1011.1 999.5
18 19.08 ЮЗ 2 10 км {дождь} 4/0
[Ci sp]
+30.0 +25.8 78 +45 +46 опасность
перегрева
1009.5 998.0 +30.6 6
21 19.08 ЮЗ 2 10 км 4/0
[Ci sp]
+28.0 +25.9 88 +42 +42 опасность
перегрева
1010.2 998.6
00 20.08 ЮЗ 2 10 км 4/0
[Ci sp]
+27.0 +25.6 92 +40 +40 очень
душно
1011.0 999.4
03 20.08 штиль 0 10 км 1/0
[Ci sp]
+26.0 +25.3 96 +38 +38 очень
душно
1009.6 998.1
06 20.08 штиль 0 10 км 8/0
[Ac As Ci sp]
+25.7 +24.7 94 +36 +36 очень
душно
1009.9 998.4 +25.4 6
09 20.08 Ю 2 10 км 9/0
[Ac As Ci sp]
+28.5 +24.7 80 +41 +46 опасность
перегрева
1012.2 1000.7
12 20.08 ЮЗ 4 10 км 8/0
[Ac As]
+31.6 +24.1 65 +44 +50 опасность
перегрева
1011.0 999.5
15 20.08 ЮЗ 3 10 км 9/3 900 м
[Cu med, cong Ac As]
+34.0 +23.7 55 +45 +49 опасность
перегрева
1009.1 997.7
18 20.08 Ю 2 10 км слаб. дождь 9/1 900 м
[Cb cap Ac As]
+33.1 +23.8 58 +44 +45 опасность
перегрева
1008.4 997.0 +35.0 0.0
21 20.08 В 3 10 км в посл. час дождь 8/1 900 м
[Cb cap Ac As]
+30.5 +26.2 78 +46 +46 опасность
перегрева
1009.7 998.2
00 21.08 Ю 3 10 км {дождь} 8/1 900 м
[Sc Ac As]
+29.4 +25.5 80 +43 +43 опасность
перегрева
1010.4 999.0 0.0
03 21.08 ЮВ 3 10 км 6/0
[Ac As]
+28.2 +25.5 85 +41 +41 опасность
перегрева
1009.0 997.6
06 21.08 ЮВ 3 10 км 5/1 900 м
[Sc Ac lent]
+27.5 +25.4 88 +40 +40 очень
душно
1009.7 998.3 +27.1 0.0
09 21.08 Ю 2 10 км 10/4 900 м
[Cu Sc Ac As]
+29.5 +25.7 80 +44 +45 опасность
перегрева
1011.3 999.8
12 21.08 ЮЗ 3 10 км 10/3 1200 м
[Cb cap Ac As]
+30.2 +25.0 74 +44 +47 опасность
перегрева
1011.0 999.5
15 21.08 ЮЗ 4 10 км гроза без осадков 9/5 900 м
[Cb cap Ac As]
+29.5 +24.6 75 +42 +44 опасность
перегрева
1008.6 997.1
18 21.08 ЮЗ 3 10 км в посл. час гроза {ливн. осадки} 8/4 1200 м
[Cu med, cong Ac lent]
+27.5 +24.7 85 +39 +39 очень
душно
1008.5 997.0 +32.5 20
21 21.08 ЮЗ 3 10 км 3/0
[Ac lent]
+26.8 +25.0 90 +39 +39 очень
душно
1010.5 999.0
00 22.08 Ю 3 10 км 4/0
[Ac lent Ci sp]
+26.0 +25.0 94 +37 +37 очень
душно
1010.4 998.9

 

Местоположение метеостанции Йелимане (Мали): широта 15.12 долгота -10.56 высота над уровнем моря 100 м.

В архиве по умолчанию представлена погода в Йелимане за последнюю неделю. Архивные данные за месяц целиком и за предыдущие месяцы, начиная с января 2011 года, Вы можете получить, выбрав интересующий диапазон дат из раскрывающегося списка и нажав кнопку "Ввод!".


*Определитесь, кто Вы:
робот инопланетянин человек

Внимание! Время в таблицах - всемирное. Для получения местного времени необходимо прибавить поправку, которая равна 0 ч.

Смотрите также архив погоды в соседних городах и на ближайших метеорологических станциях:

Погода в Каесе (Мали) (121 км)
Погода в Ниоро-Дю-Сахель (Мали) (130 км)
Погода в Киффе (Мавритания) (190 км)
Погода в Аюн-эль-Атрус (Мавритания) (204 км)
Погода в Ките (Мали) (257 км)
Погода в Кеньебе (Мали) (263 км)
Погода в Матаме (Сенегал) (294 км)
Погода в Кедугу (Сенегал) (335 км)
Погода в Фатото (Гамбия) (335 км)
Погода в Каэди (Мавритания) (336 км)

Пояснения к столбцам:

Ветер - указаны скорость ветра в м/с - средняя за 10 мин, порывы в срок и между сроками (в фигурных скобках) и направление, откуда дует ветер: С - северный, СВ - северо-восточный, В - восточный, ЮВ - юго-восточный, Ю - южный, ЮЗ - юго-западный, З - западный, СЗ - северо-западный.
Видимость - горизонтальная дальность видимости в метрах или километрах. При видимости от 1 до 10 км при отсутствии осадков обычно наблюдается дымка, при ухудшении видимости до 1 км и менее - туман. В сухую погоду видимость может ухудшаться дымом, пылью или мглою.
Явления - указаны атмосферные явления, наблюдавшиеся в срок или в последний час перед сроком; фигурными скобками обозначены явления, наблюдавшиеся между сроками (за 1-3 часа до срока); квадратными скобками обозначены град или гололедные отложения с указанием их диаметра в мм.
Облачность - указаны через наклонную черту общая и нижняя облачность в баллах и высота нижней границы облаков в метрах; квадратными скобками обозначены формы облаков: Ci - перистые, Cs - перисто-слоистые, Cc - перисто-кучевые, Ac - высококучевые, As - высокослоистые, Sc - слоисто-кучевые, Ns - слоисто-дождевые, Cu - кучевые, Cb - кучево-дождевые. Подробнее классификацию облаков см. в Атласе облаков (PDF).
T - Температура воздуха - температура, измеренная на высоте 2 м над землей.
Td - Температура точки росы - температура, при понижении до которой содержащийся в воздухе водяной пар достигнет насыщения.
f - Относительная влажность воздуха - влажноcть воздуха, измеренная на высоте 2 м над землей.
Te - Эффективная температура - температура, которую ощущает одетый по сезону человек в тени. Характеристика душности погоды. При расчете учитывается влияние влажности воздуха и скорости ветра на теплоощущения человека.
Tes - Эффективная температура на солнце - температура, которую ощущает человек, с поправкой на солнечный нагрев. Характеристика знойности погоды. Зависит от высоты солнца над горизонтом, облачности и скорости ветра. Ночью, в пасмурную погоду, а также при ветре 12 м/с и более поправка равна нулю.
P - Атмосферное давление - приведенное к уровню моря атмосферное давление.
Po - Атмосферное давление - измеренное на уровне метеостанции атмосферное давление.
Tmin - Минимальная температура - минимум температуры воздуха на высоте 2 м над землей.
Tmax - Максимальная температура - максимум температуры воздуха на высоте 2 м над землей.
R - Количество осадков - Количество выпавших осадков за период времени, мм. При наведении курсора мыши на число - период времени, за который выпало указанное количество осадков.
R24 - Количество осадков - Количество выпавших осадков за 24 часа, мм.
S - Снежный покров - Высота снежного покрова, см. При наведении курсора мыши на число - состояние снежного покрова и степень покрытия местности в баллах.